DW4212 Weather Reports


Display with metric or nautical units.
time (UTC)temp
F
wind
direction
speed
MPH
gust
MPH
rain 1hr
in
rain 24hr
in
rain mn
in
humidity
%
barometer
mb
20260507153952 51 138 0.0 0.0 0.39 1.10 0.22 88 1012.0
20260507152951 51 138 0.0 0.0 0.63 1.10 0.22 89 1011.9
20260507151939 50 137 0.0 0.0 0.79 1.10 0.22 89 1012.0
20260507150949 50 140 0.0 0.0 0.79 1.10 0.22 89 1012.1
20260507145935 49 140 0.0 1.0 0.79 1.10 0.22 89 1011.9
20260507144945 49 165 0.0 0.0 0.71 1.02 0.20 86 1012.3
20260507143913 50 165 0.0 0.0 0.39 0.71 0.14 86 1012.6
20260507141918 50 171 1.0 10.0 0.00 0.31 0.06 83 1012.7
20260507140929 51 169 4.0 12.0 0.00 0.31 0.06 80 1012.6
20260507135912 52 209 1.0 11.0 0.00 0.31 0.06 77 1012.4
20260507134920 52 153 0.0 4.0 0.00 0.31 0.06 76 1012.2
20260507133911 52 69 0.0 5.0 0.00 0.31 0.06 73 1012.1
20260507132928 54 140 0.0 9.0 0.00 0.31 0.06 70 1012.0
20260507131916 57 136 1.0 7.0 0.00 0.31 0.06 69 1011.8
20260507130927 58 172 0.0 3.0 0.00 0.31 0.06 71 1011.7
20260507125915 58 172 0.0 3.0 0.00 0.31 0.06 70 1011.7
20260507124925 58 175 0.0 3.0 0.00 0.31 0.06 69 1011.8
20260507123915 58 174 0.0 7.0 0.00 0.31 0.06 67 1011.5
20260507122920 59 169 1.0 8.0 0.00 0.31 0.06 64 1011.3
20260507121912 61 169 0.0 7.0 0.00 0.31 0.06 63 1011.6
20260507120920 61 162 1.0 6.0 0.00 0.31 0.06 62 1011.4
20260507115924 61 172 0.0 7.0 0.04 0.31 0.06 63 1011.5
20260507114914 60 183 0.0 8.0 0.04 0.31 0.06 62 1011.6
20260507113928 59 171 0.0 8.0 0.04 0.31 0.06 65 1011.7
20260507112911 58 146 0.0 8.0 0.04 0.31 0.06 68 1012.1
20260507111920 57 121 0.0 2.0 0.04 0.31 0.06 74 1012.4
20260507110910 56 123 1.0 5.0 0.04 0.31 0.06 75 1012.4
20260507105919 56 122 0.0 4.0 0.00 0.28 0.06 74 1012.5
20260507104929 56 122 0.0 4.0 0.00 0.28 0.06 77 1012.6
20260507103918 56 122 0.0 3.0 0.00 0.28 0.06 78 1012.7
20260507102923 56 122 0.0 3.0 0.00 0.28 0.06 78 1012.8
20260507101912 54 122 0.0 7.0 0.00 0.28 0.06 82 1012.8
20260507100921 53 65 0.0 0.0 0.00 0.28 0.06 86 1013.0
20260507095926 51 65 0.0 0.0 0.00 0.28 0.06 86 1012.9
20260507094920 51 65 0.0 0.0 0.00 0.28 0.06 86 1013.0
20260507093930 51 65 0.0 0.0 0.00 0.28 0.06 87 1013.0
20260507092911 51 65 0.0 0.0 0.00 0.28 0.06 88 1012.9
20260507091921 50 65 0.0 0.0 0.00 0.28 0.06 89 1012.9
20260507090915 50 65 0.0 0.0 0.00 0.28 0.06 88 1012.8
20260507085918 50 65 0.0 0.0 0.00 0.31 0.06 89 1012.9
20260507084928 49 65 0.0 0.0 0.00 0.31 0.06 88 1012.8
20260507083919 50 65 0.0 0.0 0.00 0.31 0.06 89 1012.8
20260507082927 49 65 0.0 0.0 0.08 0.31 0.06 89 1012.7
20260507081916 49 65 0.0 0.0 0.08 0.31 0.06 89 1012.7
20260507080926 49 65 0.0 0.0 0.08 0.31 0.06 88 1012.7
20260507075911 49 65 0.0 0.0 0.08 0.31 0.06 88 1012.6
20260507074925 49 65 0.0 3.0 0.12 0.31 0.06 87 1012.5
20260507073916 49 65 0.0 3.0 0.28 0.31 0.06 86 1012.2
20260507072920 49 65 0.0 0.0 0.20 0.24 0.04 85 1012.6
20260507071911 49 65 0.0 0.0 0.20 0.24 0.04 85 1012.5
20260507070918 49 65 0.0 0.0 0.20 0.24 0.04 84 1012.5
20260507065922 49 65 0.0 0.0 0.20 0.24 0.04 83 1012.4
20260507064927 49 65 0.0 0.0 0.16 0.20 0.03 82 1012.4
20260507063924 49 65 0.0 0.0 0.00 0.04 0.00 81 1012.4
20260507062912 49 65 0.0 0.0 0.00 0.04 0.00 81 1012.3
20260507061921 49 65 0.0 0.0 0.00 0.04 0.00 81 1012.3
20260507060912 49 65 0.0 0.0 0.00 0.04 0.00 81 1012.2
20260507055919 49 65 0.0 0.0 0.00 0.04 0.00 80 1012.0
20260507053918 49 65 0.0 0.0 0.00 0.04 0.00 80 1011.9
20260507052928 49 65 0.0 0.0 0.00 0.04 0.00 79 1011.8
20260507051922 49 65 0.0 0.0 0.00 0.04 0.00 79 1011.8
20260507050912 49 65 0.0 0.0 0.00 0.04 0.00 79 1011.8
20260507045916 49 65 0.0 0.0 0.00 0.04 0.00 79 1011.7
20260507044926 49 65 0.0 0.0 0.00 0.04 0.00 79 1011.9
20260507043919 49 65 0.0 0.0 0.00 0.04 0.00 78 1011.9
20260507042923 49 65 0.0 3.0 0.00 0.04 0.00 77 1011.9
20260507041930 49 65 0.0 0.0 0.00 0.04 0.00 77 1011.9
20260507040918 49 65 0.0 0.0 0.00 0.04 0.00 77 1012.0
20260507035924 49 65 0.0 0.0 0.00 0.04 0.00 76 1012.0
20260507034914 49 65 0.0 0.0 0.00 0.04 0.00 76 1012.0
20260507033925 49 65 0.0 0.0 0.00 0.04 0.00 76 1012.1
20260507032911 49 65 0.0 0.0 0.00 0.04 0.00 76 1012.1
20260507031921 49 65 0.0 0.0 0.00 0.04 0.00 75 1012.1
20260507030912 49 65 0.0 0.0 0.00 0.04 0.00 75 1012.2
20260507025916 49 65 0.0 0.0 0.00 0.04 0.00 75 1012.2
20260507024910 49 65 0.0 0.0 0.00 0.04 0.00 76 1012.2
20260507023919 49 65 0.0 0.0 0.00 0.04 0.00 76 1012.2
20260507022923 49 65 0.0 0.0 0.00 0.04 0.00 75 1012.2
20260507022013 49 65 0.0 0.0 0.00 0.04 0.00 75 1012.3
20260507021916 49 65 0.0 0.0 0.00 0.04 0.00 75 1012.3
20260507020925 49 65 0.0 0.0 0.00 0.04 0.00 75 1012.3
20260507015926 49 65 0.0 0.0 0.00 0.04 0.00 75 1012.3
20260507014917 48 65 0.0 0.0 0.00 0.04 0.00 75 1012.3
20260507013927 48 65 0.0 0.0 0.00 0.04 0.00 75 1012.3
20260507012928 48 65 0.0 0.0 0.00 0.04 0.00 74 1012.3
20260507011917 49 65 0.0 4.0 0.00 0.04 0.00 73 1012.3
20260507010926 49 65 0.0 4.0 0.00 0.04 0.00 72 1012.4
20260507005929 50 65 0.0 3.0 0.00 0.04 0.00 71 1012.5
20260507004917 50 66 0.0 5.0 0.00 0.04 0.00 70 1012.4
20260507003925 50 65 1.0 5.0 0.00 0.04 0.00 70 1012.4
20260507002925 50 66 1.0 7.0 0.00 0.04 0.00 71 1012.3
20260507001913 50 67 2.0 8.0 0.00 0.04 0.00 70 1012.4
20260507000922 50 69 2.0 8.0 0.00 0.04 0.00 69 1012.4
20260506235927 50 71 1.0 7.0 0.00 0.04 0.01 68 1012.3
20260506234915 49 73 2.0 8.0 0.00 0.04 0.01 69 1012.4
20260506233925 49 172 0.0 0.0 0.00 0.04 0.01 70 1012.3
20260506232923 47 175 0.0 3.0 0.00 0.04 0.01 71 1012.2
20260506231912 47 176 0.0 0.0 0.00 0.04 0.01 72 1012.1
20260506230926 47 176 0.0 0.0 0.00 0.04 0.01 73 1012.0
20260506225928 46 176 0.0 0.0 0.00 0.04 0.01 74 1012.0
20260506224917 47 176 0.0 0.0 0.00 0.04 0.01 72 1012.1
20260506223926 47 176 0.0 0.0 0.00 0.04 0.01 72 1012.1
20260506222926 48 176 0.0 0.0 0.00 0.04 0.01 71 1012.1
20260506221915 48 176 0.0 0.0 0.00 0.04 0.01 70 1012.0
20260506220928 48 176 0.0 0.0 0.00 0.04 0.01 69 1012.0
20260506220010 49 176 0.0 0.0 0.00 0.04 0.01 68 1012.1
20260506214911 49 176 0.0 0.0 0.00 0.04 0.01 68 1012.2
20260506213919 49 176 0.0 0.0 0.00 0.04 0.01 67 1012.1
20260506212922 49 176 0.0 0.0 0.00 0.04 0.01 65 1012.2
20260506211911 50 176 0.0 0.0 0.00 0.04 0.01 65 1012.2
20260506210924 50 176 0.0 0.0 0.00 0.04 0.01 65 1012.2
20260506205927 50 176 0.0 0.0 0.00 0.04 0.01 63 1012.2
20260506204913 50 176 0.0 0.0 0.00 0.04 0.01 62 1012.1
20260506203922 51 176 0.0 0.0 0.00 0.04 0.01 60 1012.0
20260506202923 52 176 0.0 0.0 0.00 0.04 0.01 59 1012.0
20260506201912 52 176 0.0 0.0 0.00 0.04 0.01 58 1012.0
20260506200922 53 176 0.0 0.0 0.00 0.04 0.01 55 1011.9
20260506195925 54 176 0.0 0.0 0.00 0.04 0.01 57 1011.9
20260506193929 55 176 0.0 0.0 0.00 0.04 0.01 55 1011.7
20260506192916 56 176 0.0 0.0 0.00 0.04 0.01 53 1011.7
20260506191925 57 176 0.0 0.0 0.00 0.04 0.01 52 1011.7
20260506190913 58 176 0.0 0.0 0.00 0.04 0.01 52 1011.6
20260506185915 58 176 0.0 0.0 0.00 0.04 0.01 52 1011.4
20260506184927 60 176 0.0 0.0 0.00 0.04 0.01 50 1011.3
20260506183916 60 176 0.0 0.0 0.00 0.04 0.01 48 1011.3
20260506182919 61 176 0.0 0.0 0.00 0.04 0.01 48 1011.3
20260506181928 62 176 0.0 0.0 0.00 0.04 0.01 46 1011.2
20260506180917 61 176 0.0 0.0 0.00 0.04 0.01 47 1011.2
20260506175920 61 176 0.0 0.0 0.00 0.04 0.01 44 1011.1
20260506174928 61 176 0.0 0.0 0.00 0.04 0.01 44 1011.2
20260506173917 61 176 0.0 0.0 0.00 0.04 0.01 45 1011.2
20260506172920 62 176 0.0 3.0 0.00 0.04 0.01 44 1011.3
20260506171930 62 176 1.0 6.0 0.00 0.04 0.01 42 1011.2
20260506170917 63 176 2.0 5.0 0.00 0.04 0.01 41 1011.3
20260506165919 64 176 0.0 4.0 0.00 0.04 0.01 42 1011.2
20260506164926 65 176 0.0 0.0 0.00 0.04 0.01 39 1011.3
20260506163913 64 176 0.0 5.0 0.00 0.04 0.01 40 1011.3
20260506162920 65 176 0.0 6.0 0.00 0.04 0.01 40 1011.3
20260506161929 65 176 1.0 6.0 0.00 0.04 0.01 42 1011.3
20260506160919 65 175 0.0 4.0 0.00 0.04 0.01 43 1011.3
20260506155922 64 175 1.0 7.0 0.00 0.04 0.01 44 1011.3
20260506154912 62 173 0.0 4.0 0.00 0.04 0.01 44 1011.4